TimeEEST,TemperatureF,Dew PointF,Humidity,Sea Level PressureIn,VisibilityMPH,Wind Direction,Wind SpeedMPH,Gust SpeedMPH,PrecipitationIn,Events,Conditions,WindDirDegrees,DateUTC
12:20 AM,35.6,26.6,70,30.18,6.2,West,4.6,-,N/A,,Scattered Clouds,280,2013-10-05 21:20:00
12:50 AM,32.0,26.6,80,30.18,6.2,Variable,1.2,-,N/A,,Scattered Clouds,0,2013-10-05 21:50:00
1:20 AM,32.0,26.6,80,30.18,6.2,WNW,5.8,-,N/A,,Scattered Clouds,300,2013-10-05 22:20:00
1:50 AM,33.8,26.6,75,30.18,6.2,Variable,2.3,-,N/A,,Scattered Clouds,0,2013-10-05 22:50:00
2:20 AM,33.8,24.8,70,30.18,6.2,Variable,1.2,-,N/A,,Scattered Clouds,0,2013-10-05 23:20:00
2:50 AM,30.2,24.8,80,30.18,6.2,Variable,2.3,-,N/A,,Scattered Clouds,0,2013-10-05 23:50:00
3:00 AM,30,25,75,30.25,12,ESE,2.3,,,,Partly Cloudy,120,2013-10-06 00:00:00
3:20 AM,32.0,26.6,80,30.15,6.2,Variable,1.2,-,N/A,,Scattered Clouds,0,2013-10-06 00:20:00
3:50 AM,28.4,24.8,86,30.15,6.2,Variable,2.3,-,N/A,,Scattered Clouds,0,2013-10-06 00:50:00
4:20 AM,30.2,26.6,86,30.15,6.2,Variable,2.3,-,N/A,,Scattered Clouds,0,2013-10-06 01:20:00
4:50 AM,28.4,23.0,80,30.18,6.2,Variable,2.3,-,N/A,,Scattered Clouds,0,2013-10-06 01:50:00
5:20 AM,26.6,23.0,86,30.18,6.2,NNE,4.6,-,N/A,,Scattered Clouds,20,2013-10-06 02:20:00
5:50 AM,26.6,23.0,86,30.18,6.2,NNE,2.3,-,N/A,,Scattered Clouds,30,2013-10-06 02:50:00
6:20 AM,26.6,23.0,86,30.18,6.2,NNE,3.5,-,N/A,,Scattered Clouds,30,2013-10-06 03:20:00
6:50 AM,26.6,21.2,80,30.18,6.2,Variable,1.2,-,N/A,,Scattered Clouds,0,2013-10-06 03:50:00
7:20 AM,24.8,23.0,93,30.18,6.2,Calm,Calm,-,N/A,,Scattered Clouds,0,2013-10-06 04:20:00
7:50 AM,28.4,24.8,86,30.21,6.2,North,1.2,-,N/A,,Scattered Clouds,10,2013-10-06 04:50:00
8:20 AM,30.2,26.6,86,30.21,6.2,NW,2.3,-,N/A,,Scattered Clouds,310,2013-10-06 05:20:00
8:50 AM,33.8,26.6,75,30.21,6.2,Variable,1.2,-,N/A,,Scattered Clouds,0,2013-10-06 05:50:00
9:00 AM,34,27,65,30.32,12,,1.2,,,,Partly Cloudy,,2013-10-06 06:00:00
9:20 AM,37.4,30.2,75,30.24,6.2,Variable,2.3,-,N/A,,Scattered Clouds,0,2013-10-06 06:20:00
9:50 AM,41.0,28.4,61,30.21,6.2,Variable,2.3,-,N/A,,Scattered Clouds,0,2013-10-06 06:50:00
10:20 AM,44.6,28.4,53,30.21,6.2,South,3.5,-,N/A,,Scattered Clouds,180,2013-10-06 07:20:00
10:50 AM,44.6,30.2,57,30.21,6.2,West,4.6,-,N/A,,Scattered Clouds,280,2013-10-06 07:50:00
11:20 AM,46.4,28.4,50,30.21,6.2,WNW,4.6,-,N/A,,Scattered Clouds,300,2013-10-06 08:20:00
11:50 AM,46.4,26.6,46,30.21,6.2,WNW,8.1,-,N/A,,Scattered Clouds,300,2013-10-06 08:50:00
12:20 PM,48.2,24.8,40,30.21,6.2,WNW,5.8,-,N/A,,Scattered Clouds,300,2013-10-06 09:20:00
12:50 PM,48.2,24.8,40,30.21,6.2,North,6.9,-,N/A,,Scattered Clouds,360,2013-10-06 09:50:00
1:20 PM,50.0,24.8,37,30.21,6.2,Variable,4.6,-,N/A,,Scattered Clouds,0,2013-10-06 10:20:00
1:50 PM,50.0,24.8,37,30.21,6.2,NNW,6.9,-,N/A,,Scattered Clouds,330,2013-10-06 10:50:00
2:20 PM,50.0,23.0,35,30.18,6.2,West,4.6,-,N/A,,Scattered Clouds,280,2013-10-06 11:20:00
2:50 PM,50.0,23.0,35,30.18,6.2,West,9.2,-,N/A,,Scattered Clouds,260,2013-10-06 11:50:00
3:00 PM,50,23,22,30.26,12,West,9.2,,,,Partly Cloudy,260,2013-10-06 12:00:00
3:20 PM,51.8,23.0,33,30.21,6.2,NNE,4.6,-,N/A,,Scattered Clouds,30,2013-10-06 12:20:00
3:50 PM,51.8,23.0,33,30.21,6.2,North,6.9,-,N/A,,Scattered Clouds,350,2013-10-06 12:50:00
4:20 PM,51.8,23.0,33,30.21,6.2,North,16.1,-,N/A,,Scattered Clouds,350,2013-10-06 13:20:00
4:50 PM,50.0,23.0,35,30.21,6.2,NNE,12.7,-,N/A,,Scattered Clouds,20,2013-10-06 13:50:00
5:20 PM,48.2,23.0,37,30.21,6.2,North,12.7,-,N/A,,Scattered Clouds,360,2013-10-06 14:20:00
5:50 PM,48.2,23.0,37,30.24,6.2,North,12.7,-,N/A,,Scattered Clouds,10,2013-10-06 14:50:00
6:20 PM,46.4,23.0,40,30.24,6.2,NNW,11.5,-,N/A,,Scattered Clouds,340,2013-10-06 15:20:00
6:50 PM,44.6,23.0,43,30.27,6.2,North,11.5,-,N/A,,Scattered Clouds,360,2013-10-06 15:50:00
7:20 PM,44.6,23.0,43,30.27,6.2,North,8.1,-,N/A,,Scattered Clouds,10,2013-10-06 16:20:00
7:50 PM,42.8,24.8,49,30.27,6.2,NNE,10.4,-,N/A,,Scattered Clouds,30,2013-10-06 16:50:00
8:20 PM,41.0,26.6,57,30.30,6.2,NNE,8.1,-,N/A,,Scattered Clouds,30,2013-10-06 17:20:00
8:50 PM,41.0,26.6,57,30.30,6.2,NE,9.2,-,N/A,,Partly Cloudy,40,2013-10-06 17:50:00
9:00 PM,40,27,47,30.40,12,NE,9.2,,,,Scattered Clouds,40,2013-10-06 18:00:00
9:20 PM,39.2,24.8,56,30.30,6.2,NE,9.2,-,N/A,,Partly Cloudy,40,2013-10-06 18:20:00
9:50 PM,37.4,24.8,60,30.33,6.2,NE,10.4,-,N/A,,Partly Cloudy,40,2013-10-06 18:50:00
10:20 PM,37.4,24.8,60,30.33,-9999.0,NNE,9.2,-,N/A,,Clear,30,2013-10-06 19:20:00
10:50 PM,35.6,24.8,65,30.33,-9999.0,NNE,4.6,-,N/A,,Clear,30,2013-10-06 19:50:00
11:20 PM,35.6,23.0,60,30.33,-9999.0,NNE,3.5,-,N/A,,Clear,20,2013-10-06 20:20:00
11:50 PM,33.8,23.0,65,30.33,-9999.0,Variable,1.2,-,N/A,,Clear,0,2013-10-06 20:50:00